Regional Weather Roundup
Issued by NWS

Home | Current Version | Previous Version | Text Only | Print | Product List | Glossary On
Versions: 1 2 3 4 5 6 7 8 9 10 11 12 13 14 15 16 17 18 19 20 21 22 23 24 25 26 27 28 29 30 31 32 33 34 35 36 37 38 39 40 41 42 43 44 45 46 47 48 49 50
000
ASUS45 KABQ 201001
RWRNM
NEW MEXICO REGIONAL WEATHER ROUNDUP
NATIONAL WEATHER SERVICE ALBUQUERQUE NM
300 AM MST MON FEB 20 2017

NOTE: "FAIR" MEANS FEW OR NO CLOUDS BELOW 12,000 FEET AGL WITH NO
       SIGNIFICANT WEATHER OR OBSTRUCTIONS TO VISION.

      THIS PRODUCT IS RELEASED AS TWO VERSIONS.  ONE VERSION NEAR
      THE TOP OF THE HOUR CONTAINING PRELIMINARY DATA FROM ALBUQUERQUE
      AND OTHER STATIONS.  A FINAL VERSION WITH ADDITIONAL DATA IS
      ISSUED ABOUT 10 MINUTES AFTER THE HOUR.

NMZ501-503-504-510>518-201100-
NORTHWEST PLATEAU/NORTHCENTRAL MOUNTAINS

CITY           SKY/WX    TMP DP  RH WIND       PRES   REMARKS
FARMINGTON     FAIR      36  33  89 W8        30.04R WCI  30
LOS ALAMOS     CLOUDY    34  29  81 SE3       30.01R
SANTA FE       CLOUDY    36  31  82 NW5       30.00R WCI  32
TAOS           FAIR      28  19  69 N5        30.00R WCI  23
ANGEL FIRE     MOCLDY    30  25  81 W13G20    29.97R WCI  20

$$
NMZ402-403-502-505>509-201100-
WESTCENTRAL MOUNTAINS/SOUTHWEST MOUNTAINS

CITY           SKY/WX    TMP DP  RH WIND       PRES   REMARKS
GALLUP         CLOUDY    35  33  92 S7        30.12R WCI  29
GRANTS         CLOUDY    35  31  83 NW13G20   30.10R WCI  26
SILVER CITY    FAIR      37  35  90 W8        30.11S WCI  31

$$
NMZ407-409-411-412-201100-
SOUTHERN DESERTS

CITY           SKY/WX    TMP DP  RH WIND       PRES   REMARKS
DEMING         FAIR      43  38  82 SW13      30.10S
LAS CRUCES     FAIR      42  37  82 W18G24    30.08R
HOLLOMAN AFB   MOCLDY    43  33  68 N6        30.07S
ALAMOGORDO     FAIR      41  32  70 NW5       30.05R
T OR C         FAIR      40  30  67 W5        30.05R

$$
NMZ519>523-201100-
CENTRAL VALLEYS/CENTRAL HIGHLANDS

CITY           SKY/WX    TMP DP  RH WIND       PRES   REMARKS
ALBUQUERQUE    MOCLDY    42  33  70 CALM      30.03S
DOUBLE EAGLE   CLOUDY    39  32  76 CALM      30.03S
MORIARTY ARPT  FAIR      38  33  80 NW10      30.01R WCI  31
CLINES CORNERS FAIR      33  29  85 W41G51    29.91  WCI  17
BELEN          FAIR      38  31  76 W6        30.05R WCI  33
SOCORRO        FAIR      43  31  63 N12       30.04R

$$
NMZ524>526-539-540-201100-
SOUTHCENTRAL MOUNTAINS

CITY           SKY/WX    TMP DP  RH WIND       PRES   REMARKS
RUIDOSO        FAIR      37  25  60 NW10G23   30.02R WCI  30

$$
NMZ527>531-201100-
NORTHEAST HIGHLANDS/NORTHEAST PLAINS

CITY           SKY/WX    TMP DP  RH WIND       PRES   REMARKS
LAS VEGAS      FAIR      34  21  59 N7        29.89R WCI  28
RATON          FAIR      26  17  68 N7        29.85R WCI  18
CLAYTON        FAIR      36  25  64 W12       29.79R WCI  28

$$
NMZ532>537-201100-
EASTCENTRAL PLAINS

CITY           SKY/WX    TMP DP  RH WIND       PRES   REMARKS
TUCUMCARI      FAIR      43  32  65 W13       29.82S
CANNON AFB     FAIR      32  31  99 SW10      29.88S WCI  23
CLOVIS AIRPORT FAIR      36  28  75 W14       29.87S WCI  27

$$
NMZ028-029-538-201100-
SOUTHEAST PLAINS

CITY           SKY/WX    TMP DP  RH WIND       PRES   REMARKS
ROSWELL        FAIR      36  27  69 SE5         N/A  WCI  32
ARTESIA        FAIR      39  30  70 SW10      29.96F WCI  32
CARLSBAD       FAIR      46  33  60 S8        29.97R
HOBBS          FAIR      39  28  65 W10       29.96S WCI  32


$$



USA.gov is the U.S. government's official web portal to all federal, state and local government web resources and services.